Regional Weather Roundup
Issued by NWS

Home | Current Version | Previous Version | Graphics & Text | Print | Product List | Glossary On
Versions: 1 2 3 4 5 6 7 8 9 10 11 12 13 14 15 16 17 18 19 20 21 22 23 24 25 26 27 28 29 30 31 32 33 34 35 36 37 38 39 40 41 42 43 44 45 46 47 48 49 50
000
ASUS43 KLMK 200102
RWRKY
KENTUCKY REGIONAL WEATHER ROUNDUP
NATIONAL WEATHER SERVICE LOUISVILLE KY
900 PM EDT SUN OCT 19 2014

NOTE "FAIR" INDICATES FEW OR NO CLOUDS BELOW 12,000 FEET
WITH NO SIGNIFICANT WEATHER AND/OR OBSTRUCTIONS TO VISIBILITY.

KYZ001>023-026-027-061>063-070>075-200200-
WESTERN AND SOUTH CENTRAL KENTUCKY

CITY           SKY/WX    TMP DP  RH WIND       PRES   REMARKS
PADUCAH        CLOUDY    52  48  86 CALM      30.10F FOG
HENDERSON      MOCLDY    48  43  81 CALM      30.11S
OWENSBORO      MOCLDY    51  45  80 S3        30.11F
HOPKINSVILLE   PTCLDY    54  47  77 CALM      30.11S
BOWLING GREEN  PTCLDY    53  45  74 CALM      30.12S
GLASGOW        NOT AVBL
$$

KYZ024-025-028>034-038-045-046-053-200200-
NORTH CENTRAL KENTUCKY

CITY           SKY/WX    TMP DP  RH WIND       PRES   REMARKS
LOUISVILLE/SDF MOCLDY    52  44  74 S5        30.10F
LOUISVILLE/LOU PTCLDY    52  42  69 CALM      30.11F
FORT KNOX      MOCLDY    47  43  88 CALM      30.09F
$$

KYZ035>037-039>044-047>052-055>060-089>105-200200-
NORTHEAST KENTUCKY

CITY           SKY/WX    TMP DP  RH WIND       PRES   REMARKS
LEXINGTON      PTCLDY    50  42  74 SE5       30.12F
COVINGTON      PTCLDY    45  37  73 S3        30.10F
FRANKFORT      PTCLDY    48  42  80 CALM      30.10F
$$

KYZ054-064>069-076>088-106>120-200200-
SOUTHEAST KENTUCKY

CITY           SKY/WX    TMP DP  RH WIND       PRES   REMARKS
JACKSON        PTCLDY    52  37  56 CALM      30.12F
LONDON         PTCLDY    49  42  77 CALM      30.13S
SOMERSET       PTCLDY    46  43  87 CALM      30.14S
MIDDLESBORO    NOT AVBL
MONTICELLO     PTCLDY    44  42  93 CALM      30.15S FOG
$$



USA.gov is the U.S. government's official web portal to all federal, state and local government web resources and services.